Content
SEND FEEDBACK

Daily
Averages
Monthly
Summary
United States of America

GRANBY, COLORADO


Home > North America > United States > Colorado
Elevation: 8210 feet     Latitude: 40 06N     Longitude: 105 56W

WEATHER
 
SELECT A DAY
Number of Records: 267,330;   Date Range: 8/13/03 - 10/19/14
 
SHARE

PRINT THIS DATA

[ ← Previous Day ]
WEATHER ALMANAC - APRIL 11, 2014
[ Next Day → ]
[ °C ]   °F
Weather ElementAverageHighLow
Temperature46.8 °F69.8 °F (3:36 pm)24.8 °F (6:16 am)
Dewpoint18 °F28.4 °F (12:35 am)3.2 °F (6:36 pm)
Humidity44 %93 % (6:55 am)9 % (3:36 pm)
Barometer30.10 in30.22 in (6:55 am)29.97 in (11:36 pm)
Wind Speed5.9 mph19.6 mph (1:36 pm)
Wind Gust26.5 mph (1:56 pm)
Weather ElementAverage
Visibility10 mi
Wind DirectionESE (122 °)

Weather ElementTotal
Precipitation---
Heating Degree Days17.7 (Base 65)
Averaged from 70 records on April 11, 2014
WEATHER CONDITIONS BREAKOUT
WIND DIRECTION BREAKOUT
WEATHER BY HOUR - APRIL 11, 2014
[ °C ]   °F
Local TimeTemperatureDewpointHumidityBarometerVisibilityWind DirectionWind SpeedGust SpeedPrecipitationEventsConditions
12:35 AM33.8 °F28.4 °F81 %30.18 in10.0 miCalmClear
12:56 AM33.8 °F28.4 °F81 %30.18 in10.0 miCalmClear
1:16 AM32.0 °F28.4 °F87 %30.19 in10.0 miCalmClear
1:36 AM30.2 °F24.8 °F80 %30.18 in10.0 miCalmClear
1:56 AM30.2 °F26.6 °F86 %30.18 in10.0 miCalmClear
2:16 AM30.2 °F26.6 °F86 %30.18 in10.0 miNorth (350°)3.5 mphClear
2:36 AM30.2 °F26.6 °F86 %30.18 in10.0 miCalmClear
2:56 AM30.2 °F26.6 °F86 %30.18 in10.0 miCalmClear
3:16 AM30.2 °F26.6 °F86 %30.18 in10.0 miCalmClear
3:36 AM30.2 °F26.6 °F86 %30.19 in10.0 miCalmClear
3:56 AM30.2 °F26.6 °F86 %30.19 in10.0 miCalmClear
4:15 AM28.4 °F23.0 °F80 %30.19 in10.0 miCalmClear
4:35 AM26.6 °F23.0 °F86 %30.19 in10.0 miCalmClear
4:56 AM28.4 °F23.0 °F80 %30.19 in10.0 miCalmClear
5:16 AM28.4 °F24.8 °F86 %30.19 in10.0 miCalmClear
5:36 AM28.4 °F23.0 °F80 %30.20 in10.0 miCalmClear
5:56 AM26.6 °F23.0 °F86 %30.20 in10.0 miCalmClear
6:16 AM24.8 °F21.2 °F86 %30.21 in10.0 miCalmClear
6:55 AM24.8 °F23.0 °F93 %30.22 in10.0 miCalmClear
7:16 AM26.6 °F23.0 °F86 %30.22 in10.0 miCalmClear
7:36 AM30.2 °F26.6 °F86 %30.22 in10.0 miCalmClear
7:56 AM30.2 °F26.6 °F86 %30.22 in10.0 miCalmClear
8:16 AM32.0 °F26.6 °F80 %30.22 in10.0 miCalmClear
8:36 AM33.8 °F26.6 °F75 %30.21 in10.0 miCalmClear
8:56 AM35.6 °F28.4 °F75 %30.20 in10.0 miCalmClear
9:16 AM37.4 °F28.4 °F70 %30.20 in10.0 miCalmClear
9:36 AM41.0 °F26.6 °F57 %30.19 in10.0 miCalmClear
9:56 AM42.8 °F26.6 °F53 %30.18 in10.0 miCalmClear
10:16 AM44.6 °F26.6 °F49 %30.18 in10.0 miCalmClear
10:36 AM50.0 °F26.6 °F40 %30.17 in10.0 miWSW (250°)3.5 mphClear
10:56 AM50.0 °F24.8 °F37 %30.16 in10.0 miCalmClear
11:16 AM55.4 °F19.4 °F25 %30.15 in10.0 miSW (220°)16.1 mph19.6 mphClear
11:36 AM59.0 °F17.6 °F20 %30.14 in10.0 miSW (230°)13.8 mph24.2 mphClear
11:55 AM59.0 °F17.6 °F20 %30.14 in10.0 miWSW (240°)16.1 mph21.9 mphClear
12:15 PM60.8 °F15.8 °F17 %30.12 in10.0 miSW (220°)15.0 mph20.7 mphClear
12:36 PM60.8 °F14.0 °F16 %30.11 in10.0 miWSW (240°)15.0 mph20.7 mphClear
12:55 PM60.8 °F14.0 °F16 %30.10 in10.0 miWSW (240°)13.8 mph20.7 mphClear
1:16 PM62.6 °F12.2 °F14 %30.09 in10.0 miSW (220°)15.0 mph19.6 mphClear
1:36 PM64.4 °F10.4 °F12 %30.08 in10.0 miWSW (240°)19.6 mph25.3 mphClear
1:56 PM64.4 °F10.4 °F12 %30.07 in10.0 miWSW (240°)12.7 mph26.5 mphClear
2:16 PM64.4 °F10.4 °F12 %30.06 in10.0 miWSW (240°)17.3 mph24.2 mphClear
2:36 PM66.2 °F8.6 °F11 %30.05 in10.0 miSW (230°)15.0 mph26.5 mphClear
2:56 PM66.2 °F10.4 °F11 %30.04 in10.0 miWSW (240°)13.8 mph19.6 mphClear
3:16 PM66.2 °F8.6 °F11 %30.02 in10.0 miWSW (240°)10.4 mph17.3 mphClear
3:36 PM69.8 °F6.8 °F9 %30.02 in10.0 miWest (270°)16.1 mph23.0 mphClear
3:56 PM66.2 °F8.6 °F11 %30.01 in10.0 miWSW (250°)15.0 mph21.9 mphClear
4:16 PM64.4 °F6.8 °F10 %30.01 in10.0 miWSW (240°)17.3 mph21.9 mphClear
4:36 PM62.6 °F5.0 °F10 %30.00 in10.0 miSW (220°)18.4 mph26.5 mphScattered Clouds
4:56 PM62.6 °F8.6 °F12 %30.00 in10.0 miWSW (250°)16.1 mphScattered Clouds
5:16 PM60.8 °F8.6 °F13 %30.00 in10.0 miWSW (250°)9.2 mphScattered Clouds
5:36 PM60.8 °F8.6 °F13 %30.00 in10.0 miWSW (250°)12.7 mph23.0 mphScattered Clouds
5:56 PM60.8 °F8.6 °F13 %29.99 in10.0 miWSW (240°)10.4 mph20.7 mphScattered Clouds
6:15 PM62.6 °F6.8 °F11 %29.99 in10.0 miWest (260°)12.7 mph24.2 mphScattered Clouds
6:36 PM62.6 °F3.2 °F9 %29.99 in10.0 miSW (230°)17.3 mph20.7 mphScattered Clouds
6:56 PM60.8 °F6.8 °F12 %29.99 in10.0 miWSW (250°)11.5 mph20.7 mphScattered Clouds
7:15 PM59.0 °F10.4 °F15 %29.99 in10.0 miWSW (240°)8.1 mphScattered Clouds
7:36 PM55.4 °F12.2 °F18 %29.99 in10.0 miWSW (240°)8.1 mphClear
7:56 PM53.6 °F12.2 °F19 %30.00 in10.0 miWSW (240°)6.9 mphScattered Clouds
8:16 PM53.6 °F12.2 °F19 %30.00 in10.0 miWSW (240°)6.9 mphScattered Clouds
8:36 PM51.8 °F12.2 °F21 %30.00 in10.0 miWest (270°)4.6 mphMostly Cloudy
8:56 PM51.8 °F14.0 °F22 %30.00 in10.0 miWest (270°)4.6 mphMostly Cloudy
9:16 PM50.0 °F14.0 °F24 %30.00 in10.0 miWest (270°)3.5 mphMostly Cloudy
9:36 PM50.0 °F14.0 °F24 %30.00 in10.0 miCalmMostly Cloudy
9:56 PM46.4 °F17.6 °F32 %30.00 in10.0 miCalmScattered Clouds
10:16 PM50.0 °F14.0 °F24 %30.00 in10.0 miCalmClear
10:36 PM50.0 °F14.0 °F24 %29.99 in10.0 miCalmScattered Clouds
10:56 PM46.4 °F17.6 °F32 %29.99 in10.0 miCalmScattered Clouds
11:16 PM50.0 °F17.6 °F28 %29.98 in10.0 miSSW (210°)9.2 mphScattered Clouds
11:36 PM46.4 °F15.8 °F29 %29.97 in10.0 miSSW (210°)6.9 mphScattered Clouds
11:56 PM46.4 °F14.0 °F27 %29.98 in10.0 miCalmScattered Clouds
Hourly data recorded from K20V, located miles away from Granby, Colorado







STORIES FROM OUR PARTNERS